This is the latest recevied weather packets stored in our database for station/object VE7PRT-1. If no packets are shown the sender has not sent any weather packets the latest 10 day(s).
| Time | Temp. | Humidity | Pressure | Rain* | Wind** | Luminosity | Snow |
|---|---|---|---|---|---|---|---|
| 1777704094 | 9.44° C | 96% | 1016.6 hPa | 0 mm | - | - | - |
| 1777703291 | 10° C | 96% | 1016.6 hPa | 0 mm | - | - | - |
| 1777702426 | 10° C | 96% | 1016.7 hPa | 0 mm | - | - | - |
| 1777701571 | 10° C | 96% | 1016.6 hPa | 0 mm | - | - | - |
| 1777700854 | 10° C | 96% | 1016.6 hPa | 0 mm | - | - | - |
| 1777700016 | 10.56° C | 96% | 1016.7 hPa | 0 mm | - | - | - |
| 1777699289 | 10.56° C | 96% | 1016.7 hPa | 0 mm | - | - | - |
| 1777698399 | 10.56° C | 95% | 1016.7 hPa | 0 mm | - | - | - |
| 1777697504 | 11.11° C | 95% | 1016.7 hPa | 0 mm | - | - | - |
| 1777696684 | 11.11° C | 95% | 1016.6 hPa | 0 mm | - | - | - |
| 1777695899 | 11.67° C | 96% | 1016.6 hPa | 0 mm | - | - | - |
| 1777695163 | 11.67° C | 95% | 1016.5 hPa | 0 mm | - | - | - |
| 1777694414 | 11.67° C | 96% | 1016.5 hPa | 0 mm | - | - | - |
| 1777693647 | 12.22° C | 95% | 1016.5 hPa | 0 mm | - | - | - |
| 1777692859 | 12.22° C | 95% | 1016.4 hPa | 0 mm | - | - | - |
| 1777692124 | 12.78° C | 95% | 1016.5 hPa | 0 mm | - | - | - |
| 1777691264 | 12.78° C | 94% | 1016.5 hPa | 0 mm | - | - | - |
| 1777690374 | 13.33° C | 94% | 1016.3 hPa | 0 mm | - | - | - |
| 1777689593 | 13.33° C | 93% | 1016.3 hPa | 0 mm | - | - | - |
| 1777688844 | 13.89° C | 92% | 1016.5 hPa | 0 mm | - | - | - |
| 1777687999 | 13.89° C | 91% | 1016.4 hPa | 0 mm | - | - | - |
| 1777687104 | 14.44° C | 90% | 1016.5 hPa | 0 mm | - | - | - |
| 1777686263 | 14.44° C | 89% | 1016.6 hPa | 0 mm | - | - | - |
| 1777685387 | 15° C | 87% | 1016.7 hPa | 0 mm | - | - | - |
| 1777684504 | 16.11° C | 84% | 1016.8 hPa | 0 mm | - | - | - |
* Rain latest hour (hover to see other rain measurements)
** Current wind speed in m/s (hover to see current wind gust speed)